Powrót do katalogu

STARLINK-37495

AktywnyŁącznośćSSO
NORAD 68841·PAYLOAD·🇺🇸 United States

Wystrzelony Apr 26, 2026 z Vandenberg Space Force Base

Loading…

Następne Przeloty (najbliższe 24 godziny)

TLE

ŚwieżeSource: CelesTrak SupGP

Epoka: Sep 15, 2026, 03:30 UTC

1 68841C 26094C   26258.14631944 -.00056736  00000+0 -17614-2 0  2580
2 68841  97.2829 271.2932 0001635  90.0440 268.8313 15.33463443    12

Śledź STARLINK-37495 w czasie rzeczywistym z AllMySat

Download on the App Store